Stations météo

Publicité
Beauvais, France (7055): Température de l'air & dewpoint: 11.12.2018 13:00:00 - 17.12.2018 13:00:00 (CET)Beauvais, France (7055): Température de l'air 5cm: 11.12.2018 13:00:00 - 17.12.2018 13:00:00 (CET)Beauvais, France (7055): Température de l'air -20cm & Température de l'air -100cm: 11.12.2018 13:00:00 - 17.12.2018 13:00:00 (CET)Beauvais, France (7055): Vitesse du vent & gusts: 11.12.2018 13:00:00 - 17.12.2018 13:00:00 (CET)Beauvais, France (7055): Direction du vent: 11.12.2018 13:00:00 - 17.12.2018 13:00:00 (CET)Beauvais, France (7055): reduced air pressure: 11.12.2018 13:00:00 - 17.12.2018 13:00:00 (CET)Beauvais, France (7055): visibility: 11.12.2018 13:00:00 - 17.12.2018 13:00:00 (CET)Beauvais, France (7055): Ensoleillement: 11.12.2018 13:00:00 - 17.12.2018 13:00:00 (CET)Beauvais, France (7055): Quantités de précipitations: 11.12.2018 13:00:00 - 17.12.2018 13:00:00 (CET)
Date & Time tt [°C] td [°C] tt 5cm [°C] tt -20cm [°C] tt -100cm [°C] ff [km/h] ff [knt] fx [km/h] fx [knt] dd ppp [hPa] vv [km] sd [min] rr [mm]
17.12.2018 13:00:00 8,6 6,0 - - - 11 6 26 14 SW 1022,5 23 - -
17.12.2018 12:00:00 7,6 5,6 8,8 6,3 9,2 12 6 23 12 SW 1022,2 20 54 0,0
17.12.2018 11:00:00 6,4 5,0 7,3 6,3 9,2 13 7 22 12 WSW 1022,0 16 54 0,0
17.12.2018 10:00:00 5,6 4,6 1,8 6,3 9,3 11 6 23 12 WSW 1021,0 20 34 0,0
17.12.2018 09:00:00 4,7 3,8 1,3 6,2 9,3 10 5 21 11 WSW 1020,0 26 0 0,0
17.12.2018 08:00:00 5,2 4,3 0,8 6,2 9,3 14 8 28 15 WSW 1019,0 36 0 0,0
17.12.2018 07:00:00 4,6 3,6 1,0 6,2 9,3 9 5 28 15 WSW 1018,0 35 0 0,0
17.12.2018 06:00:00 5,2 4,2 2,0 6,2 9,3 12 6 26 14 W 1016,5 34 0 0,0
17.12.2018 05:00:00 5,4 4,4 2,4 6,1 9,3 11 6 31 17 WSW 1015,8 28 0 0,0
17.12.2018 04:00:00 5,8 4,8 2,4 6,1 9,4 13 7 25 14 WSW 1014,9 33 0 0,0
17.12.2018 03:00:00 6,2 5,2 3,5 6,1 9,4 11 6 30 16 SW 1014,2 35 0 0,0
17.12.2018 02:00:00 6,7 5,8 4,9 6,1 9,4 12 6 29 16 SW 1013,2 39 0 0,0
17.12.2018 01:00:00 6,8 6,1 5,7 6,0 9,4 11 6 27 15 SSW 1012,5 32 0 0,4
17.12.2018 00:00:00 6,8 6,4 6,1 6,0 9,4 10 6 19 11 SSW 1012,2 10 0 0,8
16.12.2018 23:00:00 7,0 6,7 6,2 6,0 9,4 11 6 22 12 SSW 1011,6 7 0 1,0
16.12.2018 22:00:00 6,5 6,4 6,0 5,9 9,4 8 5 15 8 SE 1011,3 7 0 0,0
16.12.2018 21:00:00 6,3 6,2 5,7 5,9 9,4 8 5 21 11 SE 1011,3 6 0 0,0
16.12.2018 20:00:00 6,0 5,9 5,5 5,9 9,5 14 7 25 14 S 1011,4 2,8 0 0,0
16.12.2018 19:00:00 5,7 5,6 5,2 5,9 9,5 10 5 23 13 S 1011,3 7 0 0,0
16.12.2018 18:00:00 5,2 5,2 5,1 5,9 9,5 8 4 18 10 ESE 1011,0 1,6 0 0,0
16.12.2018 17:00:00 5,0 5,0 5,0 5,8 9,5 9 5 16 8 SE 1011,0 0,5 0 0,0
16.12.2018 16:00:00 4,6 4,5 5,1 5,8 9,5 6 4 18 10 SSE 1011,1 2,1 0 0,0
16.12.2018 15:00:00 4,4 4,4 4,9 5,8 9,5 9 5 17 9 S 1011,3 1,9 0 0,0
16.12.2018 14:00:00 4,4 4,4 5,7 5,8 9,6 9 5 22 12 S 1011,5 1,4 0 0,0
16.12.2018 13:00:00 4,1 4,0 5,9 5,8 9,6 9 5 18 10 SSW 1011,9 2,0 0 0,0
16.12.2018 12:00:00 4,0 3,9 5,4 5,8 9,6 11 6 18 10 SW 1012,2 1,8 0 0,0
16.12.2018 11:00:00 3,9 3,8 4,2 5,8 9,6 11 6 18 10 SSW 1012,1 1,4 0 0,0
16.12.2018 10:00:00 3,7 3,6 3,6 5,8 9,6 6 4 13 7 SSW 1012,2 0,5 0 0,0
16.12.2018 09:00:00 3,7 3,6 3,2 5,8 9,7 3 2 20 11 SSW 1011,7 0,7 0 0,0
16.12.2018 08:00:00 3,5 3,4 3,0 5,8 9,6 12 7 23 13 SW 1011,4 1,8 0 0,0
16.12.2018 07:00:00 3,4 3,3 2,9 5,8 9,7 12 7 22 12 SW 1011,2 0,8 0 0,0
16.12.2018 06:00:00 3,4 3,3 2,7 5,8 9,7 14 7 22 12 SW 1010,9 8 0 0,0
16.12.2018 05:00:00 3,3 3,2 1,7 5,8 9,7 9 5 16 9 WSW 1010,9 0,9 0 0,0
16.12.2018 04:00:00 2,0 1,9 1,2 5,8 9,7 4 2 10 5 SSW 1010,6 0,4 0 0,0
16.12.2018 03:00:00 1,4 1,3 0,2 5,9 9,7 3 2 9 5 ESE 1010,4 0,8 0 0,0
16.12.2018 02:00:00 1,0 0,9 0,2 5,9 9,7 3 2 9 5 ESE 1010,3 2,4 0 0,0
16.12.2018 01:00:00 0,6 0,3 0,2 5,9 9,8 4 2 8 5 SE 1009,9 1,1 0 0,0
16.12.2018 00:00:00 0,5 0,2 0,2 5,9 9,8 4 2 8 4 ESE 1010,3 3,0 0 0,0
15.12.2018 23:00:00 0,6 0,2 0,2 6,0 9,8 4 2 9 5 SSE 1010,3 3,9 0 1,6
15.12.2018 22:00:00 0,6 0,2 0,2 6,0 9,8 5 3 17 9 SSE 1010,4 0,7 0 1,6
15.12.2018 21:00:00 0,4 -0,3 0,2 6,0 9,8 8 5 18 10 SE 1010,5 0,1 0 1,1
15.12.2018 20:00:00 0,2 -0,5 0,2 6,1 9,9 9 5 23 12 SE 1011,4 0,1 0 1,6
15.12.2018 19:00:00 0,3 -0,7 0,2 6,1 9,9 11 6 24 13 SE 1013,0 0,3 0 0,8
15.12.2018 18:00:00 0,2 -1,1 0,2 6,1 9,9 14 7 33 18 SE 1013,9 0,2 0 1,8
15.12.2018 17:00:00 0,4 -1,5 -0,1 6,1 9,9 21 11 39 21 SE 1015,1 2,5 0 0,4
15.12.2018 16:00:00 0,3 -2,3 -0,1 6,2 9,9 16 9 41 22 SE 1016,4 9 0 0,4
15.12.2018 15:00:00 0,5 -2,9 -0,1 6,2 9,9 22 12 44 24 SE 1017,5 8 0 0,0
15.12.2018 14:00:00 0,8 -3,7 1,0 6,2 9,9 19 10 35 19 SSE 1018,7 14 0 0,0
15.12.2018 13:00:00 0,6 -3,9 0,7 6,3 10,0 17 9 29 16 SE 1020,1 15 0 0,0
15.12.2018 12:00:00 0,3 -3,8 0,2 6,3 10,0 14 8 25 14 SE 1021,1 15 0 0,0
15.12.2018 11:00:00 -0,3 -4,0 -0,6 6,4 10,0 13 7 25 14 SE 1022,1 15 0 0,0
15.12.2018 10:00:00 -0,8 -4,3 -1,9 6,4 10,0 13 7 26 14 SE 1022,4 13 3 0,0
15.12.2018 09:00:00 -1,7 -4,0 -5,1 6,4 10,0 9 5 19 11 SE 1022,6 11 0 0,0
15.12.2018 08:00:00 -3,5 -5,5 -5,2 6,5 10,1 5 3 16 9 SE 1022,6 9 0 0,0
15.12.2018 07:00:00 -3,6 -5,9 -5,3 6,5 10,1 7 4 15 8 ESE 1023,1 11 0 0,0
15.12.2018 06:00:00 -2,0 -4,5 -3,1 6,5 10,1 6 4 17 9 SE 1023,5 12 0 0,0
15.12.2018 05:00:00 -2,0 -4,5 -4,5 6,6 10,1 9 5 16 9 ESE 1023,9 13 0 0,0
15.12.2018 04:00:00 -2,3 -4,8 -4,4 6,6 10,1 3 2 13 7 SE 1024,5 13 0 0,0
15.12.2018 03:00:00 -2,9 -5,4 -4,8 6,6 10,1 6 3 14 8 SE 1024,4 13 0 0,0
15.12.2018 02:00:00 -3,1 -5,3 -4,8 6,6 10,1 4 2 10 6 SE 1024,6 10 0 0,0
15.12.2018 01:00:00 -3,0 -5,0 -6,1 6,7 10,2 0 0 11 6 N 1025,0 11 0 0,0
15.12.2018 00:00:00 -2,8 -5,3 -5,5 6,7 10,2 3 2 12 7 ESE 1025,4 14 0 0,0
14.12.2018 23:00:00 -1,7 -4,5 -2,2 6,7 10,2 5 3 13 7 SE 1025,7 14 0 0,0
14.12.2018 22:00:00 -1,6 -4,3 -3,6 6,8 10,2 2 1 15 8 S 1025,6 12 0 0,0
14.12.2018 21:00:00 -2,2 -5,4 -4,4 6,8 10,2 3 2 26 14 E 1024,9 16 0 0,0
14.12.2018 20:00:00 -1,6 -4,8 -3,5 6,8 10,3 7 4 15 8 E 1024,5 14 0 0,0
14.12.2018 19:00:00 -1,3 -3,8 -4,6 6,8 10,3 5 3 14 7 ENE 1024,7 14 0 0,0
14.12.2018 18:00:00 -2,0 -4,8 -5,1 6,9 10,3 5 3 22 12 ENE 1024,4 17 0 0,0
14.12.2018 17:00:00 -0,6 -4,3 -3,6 6,9 10,3 2 1 15 8 NNE 1024,1 14 0 0,0
14.12.2018 16:00:00 -0,1 -4,2 -1,0 6,9 10,3 4 2 12 7 NNE 1023,9 17 0 0,0
14.12.2018 15:00:00 0,1 -4,7 -0,6 7,0 10,3 3 2 12 7 NE 1023,2 18 14 0,0
14.12.2018 14:00:00 1,2 -4,3 3,9 7,0 10,3 9 5 17 9 NNE 1023,0 18 60 0,0
14.12.2018 13:00:00 0,9 -3,6 3,9 7,1 10,3 11 6 18 10 NE 1022,3 7 60 0,0
14.12.2018 12:00:00 0,1 -3,3 2,8 7,1 10,4 7 4 30 16 E 1022,0 12 60 0,0
14.12.2018 11:00:00 -1,2 -3,4 1,3 7,1 10,4 9 5 16 9 ENE 1022,6 11 60 0,0
14.12.2018 10:00:00 -2,2 -3,9 -5,7 7,2 10,4 5 3 16 9 N 1022,8 9 37 0,0
14.12.2018 09:00:00 -3,7 -5,4 -6,7 7,2 10,4 2 1 13 7 NNE 1022,4 9 0 0,0
14.12.2018 08:00:00 -3,6 -5,0 -6,8 7,3 10,4 0 0 17 9 N 1021,7 10 0 0,0
14.12.2018 07:00:00 -3,2 -4,8 -5,9 7,3 10,4 6 4 20 11 NNE 1021,0 9 0 0,0
14.12.2018 06:00:00 -3,7 -5,2 -6,3 7,4 10,5 3 1 16 9 NNE 1020,5 10 0 0,0
14.12.2018 05:00:00 -2,8 -4,7 -4,6 7,4 10,5 5 3 22 12 NE 1020,2 12 0 0,0
14.12.2018 04:00:00 -2,3 -4,3 -4,0 7,5 10,5 8 5 22 12 NE 1019,8 13 0 0,0
14.12.2018 03:00:00 -2,2 -4,4 -3,8 7,5 10,5 6 4 24 13 NE 1020,0 14 0 0,0
14.12.2018 02:00:00 -1,7 -4,0 -4,1 7,6 10,5 10 6 25 13 NE 1019,4 16 0 0,0
14.12.2018 01:00:00 -1,8 -4,5 -3,8 7,6 10,5 5 3 21 11 NE 1019,4 17 0 0,0
14.12.2018 00:00:00 -1,0 -4,2 -2,8 7,6 10,5 8 4 29 16 ENE 1019,0 19 0 0,0
13.12.2018 23:00:00 -0,9 -3,6 -2,4 7,7 10,5 8 5 27 15 NE 1018,6 19 0 0,0
13.12.2018 22:00:00 -0,4 -4,1 -1,8 7,7 10,6 10 5 31 17 ENE 1018,4 20 0 0,0
13.12.2018 21:00:00 0,3 -3,6 -1,4 7,7 10,6 13 7 29 16 ENE 1017,8 23 0 0,0
13.12.2018 20:00:00 0,2 -3,4 -1,3 7,7 10,6 10 6 27 15 ENE 1017,3 26 0 0,0
13.12.2018 19:00:00 0,7 -3,0 -1,0 7,8 10,6 14 8 31 17 ENE 1016,8 27 0 0,0
13.12.2018 18:00:00 0,5 -2,4 -1,6 7,8 10,6 11 6 27 15 ENE 1016,5 24 0 0,0
13.12.2018 17:00:00 1,4 -2,9 -0,2 7,9 10,6 15 8 37 20 ENE 1016,2 31 0 0,0
13.12.2018 16:00:00 2,6 -2,5 1,7 7,9 10,6 16 9 36 19 E 1015,5 29 42 0,0
13.12.2018 15:00:00 3,0 -2,1 3,8 7,9 10,6 24 13 36 19 E 1015,0 20 60 0,0
13.12.2018 14:00:00 3,2 -1,4 4,4 8,0 10,6 19 11 37 20 E 1015,1 21 60 0,0
13.12.2018 13:00:00 2,7 -1,1 4,2 8,0 10,6 18 10 34 19 E 1015,4 20 60 0,0
13.12.2018 12:00:00 1,9 -1,2 3,3 8,1 10,7 20 11 36 20 E 1015,8 24 60 0,0
13.12.2018 11:00:00 1,0 -1,7 1,8 8,2 10,7 18 10 42 23 E 1016,1 20 60 0,0
13.12.2018 10:00:00 0,4 -1,8 -1,3 8,2 10,7 19 10 40 21 E 1016,2 19 38 0,0
13.12.2018 09:00:00 -0,4 -1,8 -1,7 8,2 10,7 14 8 29 15 E 1016,3 14 0 0,0
13.12.2018 08:00:00 -0,4 -1,7 -1,5 8,3 10,7 14 8 30 16 E 1016,1 11 0 0,0
13.12.2018 07:00:00 -0,2 -1,3 -1,5 8,4 10,7 14 8 34 19 E 1016,3 9 0 0,0
13.12.2018 06:00:00 -0,5 -1,3 -2,2 8,4 10,7 13 7 26 14 E 1016,8 8 0 0,0
13.12.2018 05:00:00 -1,0 -1,4 -3,5 8,5 10,7 8 5 18 10 E 1017,4 6 0 0,0
13.12.2018 04:00:00 -1,3 -1,9 -3,0 8,5 10,7 6 3 18 10 SE 1017,9 5 0 0,0
13.12.2018 03:00:00 -1,1 -1,8 -2,4 8,6 10,7 7 4 22 12 ESE 1018,5 6 0 0,0
13.12.2018 02:00:00 -1,2 -1,6 -3,2 8,6 10,7 6 4 21 12 E 1018,6 4,5 0 0,0
13.12.2018 01:00:00 -1,3 -1,7 -3,0 8,6 10,7 5 3 13 7 ESE 1019,5 3,2 0 0,0
13.12.2018 00:00:00 -1,0 -1,6 -2,3 8,7 10,8 5 3 13 7 E 1019,9 3,9 0 0,0
12.12.2018 23:00:00 0,1 -0,5 -1,0 8,7 10,8 5 3 25 13 ESE 1020,5 3,5 0 0,0
12.12.2018 22:00:00 0,3 -0,4 -0,5 8,7 10,8 10 5 33 18 E 1020,8 4,7 0 0,0
12.12.2018 21:00:00 0,4 -0,3 0,3 8,8 10,8 13 7 27 15 E 1021,4 5 0 0,0
12.12.2018 20:00:00 0,6 0,0 0,5 8,8 10,8 11 6 23 12 E 1021,5 4,8 0 0,0
12.12.2018 19:00:00 0,4 -0,3 0,5 8,8 10,8 10 5 21 11 E 1021,9 6 0 0,0
12.12.2018 18:00:00 0,7 0,3 0,3 8,8 10,8 9 5 29 16 E 1022,4 3,0 0 0,0
12.12.2018 17:00:00 1,2 0,5 1,0 8,8 10,8 10 5 23 13 ENE 1022,6 6 0 0,0
12.12.2018 16:00:00 1,3 0,6 1,8 8,9 10,8 7 4 28 15 E 1023,0 6 1 0,0
12.12.2018 15:00:00 1,7 1,0 2,2 8,9 10,8 11 6 22 12 E 1023,1 7 14 0,0
12.12.2018 14:00:00 1,2 0,3 1,8 9,0 10,8 13 7 24 13 E 1023,3 7 25 0,0
12.12.2018 13:00:00 0,3 0,2 1,8 9,0 10,8 7 4 17 9 E 1023,9 10 3 0,0
12.12.2018 12:00:00 0,2 0,2 1,2 9,0 10,8 2 1 14 8 E 1024,7 2,8 25 0,0
12.12.2018 11:00:00 -0,8 -0,8 0,3 9,0 10,8 0 0 0 0 N 1025,3 2,1 6 0,0
12.12.2018 10:00:00 -1,0 -1,1 -0,2 9,1 10,9 0 0 0 0 N 1025,3 2,2 2 0,0
12.12.2018 09:00:00 -1,0 -1,1 -0,4 9,1 10,9 0 0 0 0 N 1025,4 1,0 0 0,0
12.12.2018 08:00:00 -0,9 -1,0 -0,1 9,1 10,9 0 0 13 7 N 1025,0 0,5 0 0,0
12.12.2018 07:00:00 -0,1 -0,2 0,5 9,1 10,9 5 3 14 8 ENE 1024,7 0,2 0 0,0
12.12.2018 06:00:00 0,7 0,6 1,4 9,2 10,9 5 3 16 9 ESE 1024,2 0,6 0 0,0
12.12.2018 05:00:00 1,6 1,5 1,9 9,2 10,9 7 4 16 9 ESE 1024,4 1,8 0 0,0
12.12.2018 04:00:00 1,6 1,5 2,3 9,2 10,9 4 2 10 6 SE 1024,9 0,2 0 0,0
12.12.2018 03:00:00 2,1 2,0 2,3 9,2 10,9 4 2 13 7 ESE 1024,9 2,1 0 0,0
12.12.2018 02:00:00 2,4 2,3 2,4 9,3 10,9 8 4 18 10 ESE 1024,6 0,3 0 0,0
12.12.2018 01:00:00 3,1 3,0 2,3 9,3 10,9 6 3 16 9 E 1024,8 0,2 0 0,0
12.12.2018 00:00:00 2,9 2,6 0,8 9,3 10,9 8 4 16 9 E 1024,8 0,4 0 0,0
11.12.2018 23:00:00 3,1 2,4 1,2 9,3 10,9 7 4 16 9 E 1024,7 4,2 0 0,0
11.12.2018 22:00:00 4,2 2,7 1,9 9,3 10,9 6 3 14 7 E 1025,0 11 0 0,0
11.12.2018 21:00:00 5,0 3,5 4,3 9,3 10,9 4 2 13 7 E 1025,1 12 0 0,0
11.12.2018 20:00:00 5,2 3,5 4,0 9,3 10,9 5 3 11 6 E 1025,1 17 0 0,0
11.12.2018 19:00:00 5,9 4,2 5,5 9,3 10,9 8 4 12 7 E 1025,1 14 0 0,0
11.12.2018 18:00:00 6,0 4,8 5,1 9,3 11,0 6 4 15 8 E 1025,1 8 0 0,0
11.12.2018 17:00:00 6,8 4,8 6,0 9,3 11,0 5 3 10 5 SE 1024,9 16 9 0,0
11.12.2018 16:00:00 7,7 5,0 7,4 9,4 11,0 5 3 9 5 SE 1024,7 20 35 0,0
11.12.2018 15:00:00 8,0 4,9 9,5 9,4 11,0 5 3 8 5 ESE 1024,8 20 37 0,0
11.12.2018 14:00:00 7,8 5,6 9,1 9,4 10,9 5 3 11 6 ESE 1025,6 12 55 0,0
11.12.2018 13:00:00 6,0 4,8 8,6 9,4 11,0 5 3 7 4 E 1026,2 0,7 49 0,0

tt = Température de l'air
td = dewpoint
tt 5cm = Température de l'air 5cm
tt -20cm = Température de l'air -20cm
tt -100cm = Température de l'air -100cm
ff = Vitesse du vent
fx = gusts
dd = Direction du vent
ppp = reduced air pressure
vv = visibility
sd = Ensoleillement
rr = Quantités de précipitations

stations d'obs. à proximité